Location: Asheville, NC
(35.6000°N, 82.5500°W)
Time: 03:21:21
(UTC-04:00)

Vanguard 2 Rocket - Pass Details

Date: 11 March 2018
Orbit: 553 x 3328 km, 32.9° (Epoch: 19 June)

Event Time Altitude Azimuth Distance (km) Brightness Sun altitude
Rises 20:38:11 0° 263° (W) 2,904 11.2 -13.8°
Reaches altitude 10° 20:40:07 10° 261° (W) 2,132 10.1 -14.2°
Maximum altitude 20:44:54 70° 178° (S) 954 6.9 -15.1°
Enters shadow 20:49:42 22° 99° (E) 2,304 8.3 -16.1°
Drops below altitude 10° 20:52:50 10° 96° (E) 3,467 - -16.7°
Sets 20:56:48 0° 94° (E) 4,910 - -17.5°
